When you browse on this site, cookies collect data to enhance your experience and personalize the content and advertising you see.
Visit our Privacy Policy to learn more. By continuing to use the site, you agree to this use of cookies and data.
  • în România
  • Lista ţărilor
  • Pe 7 zile
  • Temperatura apei
  • Meteo pe hartă
  • Widget-uri
  • user-avatar
    Intrare

    Meteo pe oră la Saint-Pol-sur-Mer

    Astăzi, 22 August, Joi

    Timp Temperatura Precipitaţii Vânt Presiune Umiditate
    00:00 +15°C° 0 mm 1 m/s 769 mmHg 80%
    01:00 +15°C° 0 mm 2 m/s 768 mmHg 81%
    02:00 +14°C° 0 mm 2 m/s 768 mmHg 81%
    03:00 +14°C° 0 mm 2 m/s 768 mmHg 82%
    04:00 +13°C° 0 mm 3 m/s 768 mmHg 81%
    05:00 +14°C° 0 mm 3 m/s 768 mmHg 80%
    06:00 +14°C° 0 mm 3 m/s 768 mmHg 79%
    07:00 +17°C° 0 mm 3 m/s 768 mmHg 71%
    08:00 +19°C° 0 mm 3 m/s 769 mmHg 62%
    09:00 +20°C° 0 mm 3 m/s 769 mmHg 54%
    10:00 +21°C° 0 mm 3 m/s 769 mmHg 50%
    11:00 +22°C° 0 mm 4 m/s 768 mmHg 47%
    12:00 +23°C° 0 mm 4 m/s 768 mmHg 43%
    13:00 +23°C° 0 mm 5 m/s 768 mmHg 44%
    14:00 +23°C° 0 mm 5 m/s 768 mmHg 45%
    15:00 +23°C° 0 mm 5 m/s 768 mmHg 46%
    16:00 +22°C° 0 mm 5 m/s 768 mmHg 50%
    17:00 +21°C° 0 mm 4 m/s 768 mmHg 54%
    18:00 +20°C° 0 mm 4 m/s 768 mmHg 58%
    19:00 +19°C° 0 mm 4 m/s 768 mmHg 63%
    20:00 +17°C° 0 mm 3 m/s 768 mmHg 67%
    21:00 +16°C° 0 mm 3 m/s 769 mmHg 72%
    22:00 +14°C° 0 mm 3 m/s 769 mmHg 72%
    23:00 +15°C° 0 mm 2 m/s 769 mmHg 72%

    Mâine, 23 August, Vineri

    Timp Temperatura Precipitaţii Vânt Presiune Umiditate
    00:00 +14°C° 0 mm 2 m/s 768 mmHg 72%
    01:00 +14°C° 0 mm 2 m/s 768 mmHg 72%
    02:00 +14°C° 0 mm 2 m/s 768 mmHg 72%
    03:00 +14°C° 0 mm 2 m/s 768 mmHg 72%
    04:00 +14°C° 0 mm 2 m/s 768 mmHg 70%
    05:00 +14°C° 0 mm 2 m/s 768 mmHg 68%
    06:00 +15°C° 0 mm 2 m/s 768 mmHg 66%
    07:00 +18°C° 0 mm 1 m/s 768 mmHg 60%
    08:00 +20°C° 0 mm 1 m/s 768 mmHg 53%
    09:00 +22°C° 0 mm 1 m/s 769 mmHg 46%
    10:00 +24°C° 0 mm 1 m/s 768 mmHg 44%
    11:00 +25°C° 0 mm 1 m/s 768 mmHg 41%
    12:00 +26°C° 0 mm 1 m/s 768 mmHg 38%
    13:00 +26°C° 0 mm 2 m/s 767 mmHg 39%
    14:00 +26°C° 0 mm 3 m/s 767 mmHg 41%
    15:00 +26°C° 0 mm 3 m/s 767 mmHg 42%
    16:00 +24°C° 0 mm 3 m/s 767 mmHg 48%
    17:00 +22°C° 0 mm 3 m/s 766 mmHg 53%
    18:00 +21°C° 0 mm 3 m/s 766 mmHg 59%
    19:00 +20°C° 0 mm 3 m/s 766 mmHg 61%
    20:00 +19°C° 0 mm 3 m/s 766 mmHg 64%
    21:00 +18°C° 0 mm 3 m/s 766 mmHg 67%
    22:00 +18°C° 0 mm 3 m/s 766 mmHg 70%
    23:00 +17°C° 0 mm 3 m/s 766 mmHg 73%

    Poimâine, 24 August, Sâmbătă

    Timp Temperatura Precipitaţii Vânt Presiune Umiditate
    00:00 +17°C° 0 mm 3 m/s 765 mmHg 77%
    01:00 +17°C° 0 mm 3 m/s 765 mmHg 78%
    02:00 +17°C° 0 mm 3 m/s 765 mmHg 80%
    03:00 +17°C° 0 mm 3 m/s 765 mmHg 81%
    04:00 +17°C° 0 mm 3 m/s 765 mmHg 79%
    05:00 +17°C° 0 mm 3 m/s 764 mmHg 78%
    06:00 +17°C° 0 mm 3 m/s 764 mmHg 76%
    07:00 +20°C° 0 mm 3 m/s 764 mmHg 67%
    08:00 +23°C° 0 mm 2 m/s 764 mmHg 58%
    09:00 +25°C° 0 mm 2 m/s 764 mmHg 49%
    10:00 +27°C° 0 mm 3 m/s 764 mmHg 45%
    11:00 +28°C° 0 mm 3 m/s 764 mmHg 40%
    12:00 +29°C° 0 mm 3 m/s 763 mmHg 36%
    13:00 +30°C° 0 mm 3 m/s 763 mmHg 36%
    14:00 +30°C° 0 mm 4 m/s 763 mmHg 35%
    15:00 +30°C° 0 mm 4 m/s 762 mmHg 35%
    16:00 +29°C° 0 mm 3 m/s 762 mmHg 40%
    17:00 +27°C° 0 mm 3 m/s 762 mmHg 45%
    18:00 +26°C° 0 mm 3 m/s 762 mmHg 50%
    19:00 +25°C° 0 mm 3 m/s 762 mmHg 53%
    20:00 +24°C° 0 mm 2 m/s 762 mmHg 55%
    21:00 +21°C° 0 mm 2 m/s 762 mmHg 57%
    22:00 +21°C° 0 mm 2 m/s 762 mmHg 59%
    23:00 +21°C° 0 mm 2 m/s 762 mmHg 61%

    25 August, Duminică

    Timp Temperatura Precipitaţii Vânt Presiune Umiditate
    00:00 +20°C° 0 mm 2 m/s 761 mmHg 62%
    01:00 +20°C° 0 mm 2 m/s 761 mmHg 65%
    02:00 +19°C° 0 mm 2 m/s 761 mmHg 68%
    03:00 +19°C° 0 mm 2 m/s 761 mmHg 71%
    04:00 +19°C° 0 mm 2 m/s 761 mmHg 71%
    05:00 +19°C° 0 mm 2 m/s 761 mmHg 70%
    06:00 +19°C° 0 mm 2 m/s 761 mmHg 70%
    07:00 +23°C° 0 mm 2 m/s 761 mmHg 63%
    08:00 +25°C° 0 mm 2 m/s 761 mmHg 56%
    09:00 +27°C° 0 mm 2 m/s 762 mmHg 49%
    10:00 +29°C° 0 mm 2 m/s 762 mmHg 43%
    11:00 +30°C° 0 mm 2 m/s 762 mmHg 38%
    12:00 +32°C° 0 mm 2 m/s 762 mmHg 33%
    13:00 +32°C° 0 mm 2 m/s 762 mmHg 34%
    14:00 +33°C° 0 mm 3 m/s 762 mmHg 34%
    15:00 +33°C° 0 mm 3 m/s 762 mmHg 35%
    16:00 +30°C° 0 mm 3 m/s 762 mmHg 40%
    17:00 +28°C° 0 mm 3 m/s 762 mmHg 46%
    18:00 +27°C° 0 mm 3 m/s 762 mmHg 52%
    19:00 +26°C° 0 mm 3 m/s 762 mmHg 54%
    20:00 +24°C° 0 mm 3 m/s 763 mmHg 57%
    21:00 +23°C° 0 mm 2 m/s 763 mmHg 59%
    22:00 +23°C° 0 mm 2 m/s 763 mmHg 60%
    23:00 +21°C° 0 mm 2 m/s 763 mmHg 62%

    26 August, Luni

    Timp Temperatura Precipitaţii Vânt Presiune Umiditate
    00:00 +21°C° 0 mm 2 m/s 763 mmHg 63%
    01:00 +21°C° 0 mm 2 m/s 763 mmHg 64%
    02:00 +21°C° 0 mm 1 m/s 763 mmHg 65%
    03:00 +21°C° 0 mm 1 m/s 763 mmHg 66%
    04:00 +21°C° 0 mm 1 m/s 763 mmHg 67%
    05:00 +21°C° 0 mm 1 m/s 763 mmHg 68%
    06:00 +21°C° 0 mm 1 m/s 764 mmHg 69%
    07:00 +23°C° 0 mm 2 m/s 764 mmHg 62%
    08:00 +25°C° 0 mm 2 m/s 764 mmHg 55%
    09:00 +27°C° 0 mm 2 m/s 764 mmHg 48%
    10:00 +28°C° 0 mm 2 m/s 764 mmHg 45%
    11:00 +29°C° 0 mm 2 m/s 764 mmHg 43%
    12:00 +30°C° 0 mm 2 m/s 764 mmHg 40%
    13:00 +30°C° 0 mm 2 m/s 764 mmHg 39%
    14:00 +30°C° 0 mm 2 m/s 763 mmHg 38%
    15:00 +30°C° 0 mm 2 m/s 763 mmHg 38%
    16:00 +28°C° 0 mm 2 m/s 763 mmHg 41%
    17:00 +27°C° 0 mm 2 m/s 763 mmHg 45%
    18:00 +25°C° 0 mm 2 m/s 763 mmHg 48%
    19:00 +24°C° 0 mm 1 m/s 763 mmHg 49%
    20:00 +23°C° 0 mm 1 m/s 763 mmHg 49%
    21:00 +22°C° 0 mm 1 m/s 764 mmHg 49%
    22:00 +22°C° 0 mm 1 m/s 764 mmHg 50%
    23:00 +22°C° 0 mm 1 m/s 763 mmHg 52%

    27 August, Marţi

    Timp Temperatura Precipitaţii Vânt Presiune Umiditate
    00:00 +21°C° 0 mm 1 m/s 763 mmHg 53%
    01:00 +21°C° 0 mm 1 m/s 763 mmHg 55%
    02:00 +21°C° 0 mm 1 m/s 763 mmHg 57%
    03:00 +21°C° 0 mm 1 m/s 762 mmHg 59%
    04:00 +21°C° 0 mm 1 m/s 762 mmHg 62%
    05:00 +21°C° 0 mm 1 m/s 762 mmHg 64%
    06:00 +22°C° 0 mm 1 m/s 762 mmHg 66%
    07:00 +24°C° 0 mm 1 m/s 762 mmHg 60%
    08:00 +26°C° 0 mm 1 m/s 762 mmHg 54%
    09:00 +26°C° 0 mm 0 m/s 762 mmHg 47%
    10:00 +30°C° 0 mm 1 m/s 762 mmHg 44%
    11:00 +31°C° 0 mm 1 m/s 762 mmHg 41%
    12:00 +32°C° 0 mm 2 m/s 761 mmHg 38%
    13:00 +33°C° 0 mm 3 m/s 761 mmHg 39%
    14:00 +31°C° 0 mm 3 m/s 760 mmHg 40%
    15:00 +32°C° 0 mm 4 m/s 760 mmHg 41%
    16:00 +29°C° 0 mm 4 m/s 760 mmHg 46%
    17:00 +28°C° 0 mm 4 m/s 760 mmHg 50%
    18:00 +27°C° 0 mm 4 m/s 760 mmHg 54%
    19:00 +26°C° 0 mm 3 m/s 760 mmHg 57%
    20:00 +25°C° 0 mm 3 m/s 760 mmHg 59%
    21:00 +24°C° 0 mm 2 m/s 760 mmHg 62%
    22:00 +23°C° 0 mm 2 m/s 759 mmHg 63%
    23:00 +23°C° 0 mm 2 m/s 759 mmHg 65%
    Arată mai mult